Find OneWeb SL0457

NORAD ID: 51647 Int'l Des: 2022-012 Owner: ONEWEBN Country: UK Constellation: oneweb operational
LEOCIRCULARPOLARONEWEB_TYPE

リアルタイム位置

3D地球を読み込み中...

OneWeb SL0457について

説明を読み込み中...

次回通過

Passes for default location (London). Set your location on the main map for personalized predictions.

高度履歴

Loading altitude history...

軌道要素

1 51647U 22012AB 26106.85229174 -.00000479 00000-0 -14080-2 0 9990
2 51647 87.8841 48.4760 0001473 75.2410 284.8881 13.10368922201315
Epoch: Apr 16, 2026 • Age: 14 hours

現在のステータス

高度 1251.3 km
速度 7.23 km/s
衛星直下点 -82.00°S, 121.32°W
打ち上げ日 Feb 10, 2022
運用期間 4.1 years
タイプ internet

技術仕様

分類 Payload
質量 148.00 kg
乾燥質量 140.00 kg
総質量 148.00 kg
長さ 1.30 m
直径 1.00 m
スパン 5.00 m
形状 Trapezoid+2 pan
製造者 ONEWUS
バスタイプ ARROW
フェーズステータス In Orbit
所有者/国 ONEWEBN/UK

Most Searched